Location: Barzana
(45.7333°N, 9.5667°E)
Time: 08:24:52
(UTC+00:00)

Daily predictions for brighter satellites

Satellite Brightness Start Highest point End
(mag) Time Altitude Azimuth Time Altitude Azimuth Time Altitude Azimuth
Cosmos 1953 Rocket 3.7 16:35:10 10° N 16:39:31 52° ENE 16:43:51 10° SSE
Cosmos 1656 4.3 16:35:17 10° S 16:40:18 36° ESE 16:45:24 10° NE
Cosmos 968 Rocket 4.1 16:38:29 10° N 16:43:13 33° ENE 16:47:53 10° ESE
Cosmos 1408 4.3 16:42:10 10° NE 16:44:09 14° ENE 16:46:08 10° ESE
Cosmos 2058 Rocket 3.6 16:41:55 10° SSE 16:46:03 37° E 16:50:13 10° NNE
NOAA 12 4.1 16:42:06 10° SSE 16:47:24 84° ENE 16:52:45 10° NNW
FALCON 9 DEB 3.2 16:44:52 10° WSW 16:48:06 68° NNW 16:51:19 10° NE
CZ-4B R/B 3.4 16:43:16 10° SSE 16:48:51 82° WSW 16:54:23 10° NNW
ADEOS Rocket 3.7 16:45:16 10° N 16:51:45 72° WNW 16:58:54 10° SSW
USA 281 3.3 16:46:16 10° SSE 16:52:50 89° WSW 16:59:27 10° NNW
Cosmos 1689 Rocket 3.5 16:51:43 10° NE 16:53:52 19° E 16:56:00 10° SE
IRS-1C Rocket 4.4 16:51:01 10° SE 16:55:58 43° ENE 17:00:56 10° N
FALCON 9 DEB 3.4 16:54:32 10° WSW 16:57:42 54° NNW 17:00:47 10° NE
CZ-4C R/B 4.2 16:54:33 10° NNW 16:59:09 19° NNE 17:04:18 10° ENE
Cosmos 2227 Rocket 2.3 16:54:00 10° NNW 16:59:36 56° ENE 17:05:08 10° SE
Cosmos 1892 3.4 16:56:52 10° N 17:00:23 31° ENE 17:03:52 10° SE
Cosmos 2263 Rocket 3.9 16:57:57 10° N 17:00:53 14° NE 17:03:25 11° ENE
Cosmos 1939 Rocket 3.2 16:57:25 10° SE 17:01:06 39° ENE 17:04:45 10° N
Cosmos 1302 Rocket 4.0 16:57:08 10° S 17:02:21 71° ESE 17:07:39 10° NNE
H-2A R/B 3.4 17:02:23 10° N 17:06:16 39° WNW 17:10:05 10° SW
USA 307 3.3 17:02:39 10° NW 17:06:49 47° NNE 17:10:17 14° E
COSMO-SKYMED 1 2.9 17:04:04 10° NNE 17:08:12 42° E 17:12:19 10° S
SAR-Lupe-4 3.7 17:06:22 10° NNE 17:09:54 52° ESE 17:13:24 10° S
Cosmos 1300 3.0 17:06:25 10° SSW 17:10:12 70° W 17:14:02 10° N
USA 308 3.2 17:07:37 10° NW 17:11:49 49° NNE 17:15:04 16° E
Cosmos 1400 Rocket 2.8 17:07:46 10° S 17:11:52 72° E 17:15:56 10° NNE
Cosmos 1486 Rocket 4.1 17:07:44 10° NNW 17:13:02 60° ENE 17:18:16 10° SE
Cosmos 1697 Rocket 3.2 17:08:22 10° S 17:13:25 36° ESE 17:18:30 10° NE
CZ-4B R/B 1.4 17:10:42 10° N 17:13:54 75° WNW 17:17:00 10° SSW
Cosmos 1825 3.4 17:13:04 10° NNE 17:15:59 21° ENE 17:17:29 17° ESE
ERS-2 2.6 17:14:04 10° N 17:17:41 64° WNW 17:21:17 10° SSW
Helios 1A Rocket 3.3 17:14:31 10° SE 17:18:25 42° ENE 17:22:18 10° N
Meteor 2-8 Rocket 4.4 17:13:58 10° S 17:20:03 73° E 17:26:11 10° NNE
YAOGAN 1 3.2 17:16:57 10° SE 17:20:49 33° ENE 17:24:42 10° N
S3M 4.2 17:15:35 10° SSE 17:21:19 44° E 17:27:07 10° NNE
BREEZE-M TANK 3.1 17:13:24 10° W 17:22:28 85° S 17:24:59 20° E
Cosmos 1503 Rocket 4.3 17:18:13 10° N 17:23:12 43° ENE 17:28:11 10° SE
Atlas Centaur 2 4.4 17:16:53 10° SW 17:23:19 26° S 17:29:59 10° ESE
NOAA 11 4.4 17:20:17 10° S 17:25:43 75° WSW 17:31:11 10° NNW
CZ-2D R/B 3.3 17:22:42 10° SSE 17:26:25 54° ENE 17:30:09 10° N
Cosmos 1812 Rocket 4.3 17:23:05 10° SSE 17:26:52 29° E 17:30:37 10° NNE
Cosmos 1340 2.8 17:23:28 10° NNW 17:27:15 79° W 17:31:02 10° S
Meteor 2-1 Rocket 4.4 17:22:05 10° SSE 17:27:15 44° E 17:32:29 10° NNE
SAR-Lupe-1 3.9 17:24:10 10° NNE 17:27:45 83° ESE 17:31:18 10° SSW
Cosmos 44 4.4 17:23:27 10° WSW 17:27:45 41° NW 17:32:20 10° NNE
Okean O Rocket 3.4 17:23:46 10° SSW 17:27:46 35° W 17:31:46 10° NNW
CZ-4 R/B 1.6 17:25:34 10° SE 17:29:15 43° ENE 17:32:55 10° N
Cosmos 1417 Rocket 4.5 17:25:17 10° S 17:31:28 66° E 17:37:45 10° NNE
SKYMED 3 4.5 17:27:56 10° NNE 17:32:18 76° ESE 17:36:38 10° S
Cosmos 1346 Rocket 2.7 17:31:08 10° N 17:35:06 60° ENE 17:39:03 10° SSE
Aureole 3 3.4 17:32:08 10° SSW 17:35:09 54° W 17:38:05 10° N
SL-4 R/B 2.4 17:31:48 10° WNW 17:35:12 40° NNE 17:36:32 28° ENE
Cosmos 2058 2.9 17:31:50 10° N 17:35:54 57° E 17:39:55 10° SSE
Cosmos 1354 Rocket 4.2 17:30:56 10° NNW 17:36:03 48° ENE 17:41:00 11° SE
Cosmos 1980 Rocket 2.9 17:32:17 10° SSE 17:37:06 30° ESE 17:39:22 22° ENE
Cosmos 2151 4.4 17:35:25 10° NNE 17:37:30 20° NE 17:37:30 20° NE
Cosmos 1992 Rocket 4.0 17:33:48 10° S 17:38:54 60° ESE 17:44:02 10° NNE
Cosmos 2297 Rocket 2.7 17:33:29 10° NNW 17:39:06 63° WSW 17:44:40 10° S
PSLV R/B 3.8 17:36:08 10° NNE 17:40:19 75° ESE 17:44:26 10° S
In-Cosmos 22 Rocket 4.3 17:35:16 10° NNW 17:40:39 76° W 17:46:08 10° S
Meteor 2-15 Rocket 4.5 17:35:50 10° S 17:41:49 57° E 17:47:49 10° NNE
CZ-2C R/B 3.3 17:37:16 10° SSE 17:42:55 59° ENE 17:48:24 10° N
CSL-04 Debris 4.4 17:38:21 10° SE 17:43:30 45° ENE 17:48:42 10° N
Cosmos 1315 Rocket 2.8 17:41:45 10° S 17:45:38 58° E 17:49:35 10° NNE
Cosmos 1553 Rocket 4.1 17:43:15 10° S 17:49:37 83° W 17:55:55 10° N
CRYOSAT 2 4.4 17:45:52 10° NNE 17:50:37 51° E 17:55:21 10° SSE
Cosmos 220 Rocket 3.9 17:47:08 10° SSW 17:51:29 87° ESE 17:55:51 11° NNE
Meteor 2-15 4.4 17:47:06 10° S 17:53:15 86° E 17:59:25 10° N
Geosat 4.4 17:52:54 31° ENE 17:54:34 40° ESE 17:59:17 10° S
Meteor 2-10 Rocket 3.4 17:50:11 10° S 17:55:29 87° E 18:00:37 10° NNE
BREEZE-M R/B 3.7 17:51:29 10° WNW 17:55:30 68° NNE 17:59:00 30° E
SKYMED 2 4.1 17:52:02 10° N 17:56:20 61° WNW 18:00:36 10° SSW
USA 305 2.8 17:52:23 10° WNW 17:56:43 89° NE 17:58:11 40° ESE
Cosmos 1455 2.0 17:53:43 10° S 17:57:29 81° E 18:01:19 10° N
Cosmos 2360 4.1 17:54:32 10° SSW 18:00:11 65° ESE 18:04:36 17° NE
SeaSat 1 3.1 18:00:38 33° ENE 18:00:53 33° NE 18:05:17 10° NNW
NOSS 3-4 (A) 4.1 17:55:58 10° NNW 18:02:38 49° NE 18:05:39 33° E
NOSS 3-4 (C) 4.1 17:56:05 10° NNW 18:02:44 48° NE 18:05:43 33° E
USA 306 2.8 17:58:54 10° WNW 18:03:13 84° SW 18:04:26 46° SE
H-2A R/B 2.1 17:58:02 10° SSE 18:03:22 62° ENE 18:08:46 10° N
Okean-O 2.9 18:00:25 10° S 18:04:50 70° WSW 18:09:17 10° NNW
MOS 1 Rocket 3.3 18:04:12 10° NNE 18:08:54 62° E 18:13:54 10° S
Cosmos 2278 3.7 18:04:54 10° S 18:10:27 57° ESE 18:12:45 34° NE
NOSS 3-3 (A) 3.9 18:05:42 10° SW 18:11:33 85° NW 18:16:10 21° NE
NOSS 3-3 (C) 3.9 18:05:49 10° SW 18:11:40 86° NW 18:16:14 21° NE
USA 215 4.0 18:10:10 28° NE 18:12:39 38° NNE 18:18:33 10° NW
ATLAS 5 CENTAUR R/B 4.3 18:15:03 10° N 18:16:09 11° N 18:17:17 10° NNE
Cosmos 1745 Rocket 4.3 18:10:03 10° NNW 18:16:18 68° W 18:22:35 10° S
GEOS 3 Rocket 3.7 18:17:20 50° E 18:18:27 61° NE 18:23:47 10° NNW
Cosmos 44 Rocket 3.1 18:14:16 10° SSW 18:19:02 79° ESE 18:19:57 58° NE
ARGOS 3.1 18:17:21 39° SE 18:19:14 63° ENE 18:24:37 10° N
Cosmos 1408 3.8 18:15:55 10° NNW 18:19:23 42° W 18:22:52 10° SSW
Lacrosse 5 3.1 18:15:30 10° NW 18:19:51 28° NNE 18:20:11 27° NNE
Cosmos 2082 4.1 18:14:18 10° NNW 18:19:59 65° WSW 18:25:38 10° SSE
Meteor 2-3 Rocket 4.2 18:14:55 10° N 18:19:36 40° NE 18:19:36 40° NE
ATLAS 2AS CENTAUR R/B 3.0 18:17:23 10° NNW 18:24:45 52° NE 18:26:17 45° E
Cosmos 1076 Rocket 4.5 18:29:43 10° NNW 18:33:47 46° W 18:37:51 10° SSW
Cosmos 2369 4.0 18:29:18 10° SW 18:34:58 65° WNW 18:39:11 18° NNE
Cosmos 1777 Rocket 4.2 18:34:12 10° NNW 18:38:35 58° NNE 18:38:35 58° NNE
CSL-04 Rocket 4.0 18:35:09 10° S 18:40:40 67° WSW 18:46:10 10° NNW
Cosmos 2227 Rocket 4.4 18:38:47 10° NW 18:43:14 24° WSW 18:47:39 10° SSW
Cosmos 1709 Rocket 4.2 18:39:28 10° NNW 18:45:50 71° W 18:52:10 10° S
Cosmos 2263 Rocket 2.5 18:40:22 10° NNW 18:45:07 54° NNE 18:45:07 54° NNE
USA 307 4.0 18:42:49 10° WNW 18:46:28 40° WSW 18:46:28 40° WSW
CZ-4C R/B 3.3 18:42:55 10° NNW 18:49:33 43° NE 18:49:38 43° NE
Cosmos 1825 4.1 18:48:12 10° NNW 18:51:30 29° W 18:52:23 26° WSW
USA 308 4.2 18:47:49 10° WNW 18:51:15 36° WSW 18:51:15 36° WSW
Cosmos 1697 Rocket 3.9 18:52:06 10° WSW 18:57:19 39° NW 19:01:26 16° N
CZ-4 R/B 4.2 19:02:08 10° SW 19:04:30 15° W 19:06:51 10° NW
Atlas Centaur 2 4.3 19:05:23 10° WSW 19:11:59 26° S 19:12:40 25° S
Cosmos 1980 Rocket 3.1 19:15:29 10° SW 19:20:52 46° WNW 19:21:13 45° NW
SeaSat 1 4.3 19:40:26 27° WNW 19:40:26 27° WNW 19:42:58 10° NW
H-2A R/B 4.5 19:39:16 10° SW 19:43:12 20° W 19:47:11 10° NW
USA 215 4.2 19:57:31 42° NW 19:57:31 42° NW 20:01:39 10° NW
ATLAS 2AS CENTAUR R/B 4.0 20:08:46 10° NW 20:13:44 36° W 20:13:44 36° W
CZ-4C R/B 4.3 20:31:19 10° NW 20:34:50 32° NW 20:34:50 32° NW
